Regional Weather Roundup
Issued by NWS State College, PA

Home | Current Version | Previous Version | Text Only | Print | Product List | Glossary Off
Versions: 1 2 3 4 5 6 7 8 9 10 11 12 13 14 15 16 17 18 19 20 21 22 23 24 25 26 27 28 29 30 31 32 33 34 35 36 37 38 39 40 41 42 43 44 45 46 47 48 49 50

000
ASUS41 KCTP 281610
RWRCTP

REGIONAL WEATHER ROUNDUP
NATIONAL WEATHER SERVICE STATE COLLEGE PA
1200 PM EDT MON JUL 28 2014

Note: "fair" indicates few or no clouds below 12,000 feet with no
significant weather and/or obstructions to visibility.

* = STATION THAT DOES NOT REPORT PRECIPITATION /E.G. RAIN...SNOW...ETC/
    THUNDER OR FOG.

PAZ002>004-007>009-013>016-020>023-029>032-281700-
WESTERN PENNSYLVANIA

CITY           SKY/WX    TMP DP  RH WIND       PRES   REMARKS
ERIE           LGT RAIN  64  58  80 N16G24    29.75R
MEADVILLE      CLOUDY    64  60  87 N12G22    29.74R
FRANKLIN*      CLOUDY    63  59  88 NW6       29.73R
NEW CASTLE     HVY RAIN  64  61  88 NW14G22   29.76R VSB 3/4
BEAVER COUNTY  LGT RAIN  64  61  88 W3        29.75R
BUTLER*        CLOUDY    64  59  82 SW13      29.76R
PITTSBURGH INT CLOUDY    65  62  90 W14       29.75R
PITTSBURGH     CLOUDY    63  59  87 W10G22    29.75R
INDIANA*       CLOUDY    66  59  77 W13G23    29.76S
LATROBE        LGT RAIN  64  63  94 W12G21    29.76R FOG
WASHINGTON CO* CLOUDY    64  57  77 W9G17     29.79R
$$

PAZ004>006-010>012-017>019-024>028-033>037-041-042-045-046-049>053-281700-
CENTRAL PENNSYLVANIA

CITY           SKY/WX    TMP DP  RH WIND       PRES   REMARKS
BRADFORD       RAIN      63  58  83 NW17G24   29.69R
DUBOIS         CLOUDY    68  59  73 W10G20    29.68F
CLEARFIELD     CLOUDY    67  59  75 W10       29.69S
JOHNSTOWN      CLOUDY    60  57  89 W12G22    29.75R
ALTOONA        CLOUDY    66  59  78 W9        29.72R
STATE COLLEGE  CLOUDY    66  59  77 W12G22    29.67R
WILLIAMSPORT   PTSUNNY   75  58  55 W17       29.58R
SELINSGROVE    MOSUNNY   76  61  59 VRB7      29.62S
FT INDIANTOWN  PTSUNNY   76  62  60 W16       29.63R
CAPITAL CITY   PTSUNNY   76  59  55 W12G20    29.63S
HARRISBURG     PTSUNNY   77  62  59 W9        29.62
YORK           PTSUNNY   76  60  57 W9G18     29.65R
$$

PAZ038>040-043-044-047-048-054-055-060>062-067>071-281700-
EASTERN PENNSYLVANIA

CITY           SKY/WX    TMP DP  RH WIND       PRES   REMARKS
SCRANTON       CLOUDY    71  63  75 SW12      29.58S
MOUNT POCONO   CLOUDY    68  60  75 W18G24    29.61S
ALLENTOWN      PTSUNNY   76  62  62 W15G23    29.58S
QUAKERTOWN*    MOSUNNY   75  64  69 W10G18    29.61S
READING        PTSUNNY   77  62  59 W17G26    29.60S
LANCASTER      MOSUNNY   76  62  62 W16       29.62S
COATESVILLE    MOSUNNY   77  64  65 W16G24    29.64R
POTTSTOWN      MOSUNNY   77  62  59 W10G21    29.62R
BLUE BELL      MOSUNNY   79  64  61 W7G17     29.59F
DOYLESTOWN     MOSUNNY   77  64  64 W9G20     29.59S
WILLOW GROVE   NOT AVBL
NORTH PHILA    MOSUNNY   80  61  52 W15G22    29.60S
PHILADELPHIA   PTSUNNY   78  64  61 W10       29.60S
$$


USA.gov is the U.S. government's official web portal to all federal, state and local government web resources and services.